Year,Month,Day,Hour,Minute,Value (Times are PST for temperature in C)
2014,07,27,00,00,14.80
2014,07,27,00,01,14.80
2014,07,27,00,02,14.80
2014,07,27,00,03,14.80
2014,07,27,00,04,14.80
2014,07,27,00,05,14.80
2014,07,27,00,06,14.80
2014,07,27,00,07,14.80
2014,07,27,00,08,14.80
2014,07,27,00,09,14.70
2014,07,27,00,10,14.70
2014,07,27,00,11,14.70
2014,07,27,00,12,14.70
2014,07,27,00,13,14.70
2014,07,27,00,14,14.70
2014,07,27,00,15,14.70
2014,07,27,00,16,14.70
2014,07,27,00,17,14.70
2014,07,27,00,18,14.60
2014,07,27,00,19,14.60
2014,07,27,00,20,14.60
2014,07,27,00,21,14.60
2014,07,27,00,22,14.60
2014,07,27,00,23,14.60
2014,07,27,00,24,14.60
2014,07,27,00,25,14.60
2014,07,27,00,26,14.50
2014,07,27,00,27,14.50
2014,07,27,00,28,14.50
2014,07,27,00,29,14.40
2014,07,27,00,30,14.40
2014,07,27,00,31,14.40
2014,07,27,00,32,14.40
2014,07,27,00,33,14.40
2014,07,27,00,34,14.40
2014,07,27,00,35,14.40
2014,07,27,00,36,14.30
2014,07,27,00,37,14.30
2014,07,27,00,38,14.30
2014,07,27,00,39,14.30
2014,07,27,00,40,14.30
2014,07,27,00,41,14.30
2014,07,27,00,42,14.30
2014,07,27,00,43,14.30
2014,07,27,00,44,14.30
2014,07,27,00,45,14.30
2014,07,27,00,46,14.30
2014,07,27,00,47,14.30
2014,07,27,00,48,14.30
2014,07,27,00,49,14.40
2014,07,27,00,50,14.40
2014,07,27,00,51,14.40
2014,07,27,00,52,14.40
2014,07,27,00,53,14.40
2014,07,27,00,54,14.40
2014,07,27,00,55,14.40
2014,07,27,00,56,14.40
2014,07,27,00,57,14.40
2014,07,27,00,58,14.40
2014,07,27,00,59,14.40
2014,07,27,01,00,14.40
2014,07,27,01,01,14.40
2014,07,27,01,02,14.40
2014,07,27,01,03,14.40
2014,07,27,01,04,14.40
2014,07,27,01,05,14.50
2014,07,27,01,06,14.50
2014,07,27,01,07,14.50
2014,07,27,01,08,14.50
2014,07,27,01,09,14.50
2014,07,27,01,10,14.40
2014,07,27,01,11,14.40
2014,07,27,01,12,14.40
2014,07,27,01,13,14.40
2014,07,27,01,14,14.40
2014,07,27,01,15,14.40
2014,07,27,01,16,14.30
2014,07,27,01,17,14.30
2014,07,27,01,18,14.30
2014,07,27,01,19,14.30
2014,07,27,01,20,14.30
2014,07,27,01,21,14.30
2014,07,27,01,22,14.40
2014,07,27,01,23,14.40
2014,07,27,01,24,14.40
2014,07,27,01,25,14.40
2014,07,27,01,26,14.40
2014,07,27,01,27,14.40
2014,07,27,01,28,14.40
2014,07,27,01,29,14.40
2014,07,27,01,30,14.40
2014,07,27,01,31,14.30
2014,07,27,01,32,14.30
2014,07,27,01,33,14.30
2014,07,27,01,34,14.30
2014,07,27,01,35,14.30
2014,07,27,01,36,14.30
2014,07,27,01,37,14.30
2014,07,27,01,38,14.30
2014,07,27,01,39,14.30
2014,07,27,01,40,14.30
2014,07,27,01,41,14.30
2014,07,27,01,42,14.30
2014,07,27,01,43,14.30
2014,07,27,01,44,14.30
2014,07,27,01,45,14.20
2014,07,27,01,46,14.20
2014,07,27,01,47,14.20
2014,07,27,01,48,14.20
2014,07,27,01,49,14.20
2014,07,27,01,50,14.20
2014,07,27,01,51,14.20
2014,07,27,01,52,14.20
2014,07,27,01,53,14.20
2014,07,27,01,54,14.20
2014,07,27,01,55,14.20
2014,07,27,01,56,14.20
2014,07,27,01,57,14.20
2014,07,27,01,58,14.20
2014,07,27,01,59,14.20
2014,07,27,02,00,14.20
2014,07,27,02,01,14.20
2014,07,27,02,02,14.20
2014,07,27,02,03,14.20
2014,07,27,02,04,14.20
2014,07,27,02,05,14.20
2014,07,27,02,06,14.20
2014,07,27,02,07,14.20
2014,07,27,02,08,14.20
2014,07,27,02,09,14.20
2014,07,27,02,10,14.10
2014,07,27,02,11,14.10
2014,07,27,02,12,14.10
2014,07,27,02,13,14.10
2014,07,27,02,14,14.10
2014,07,27,02,15,14.10
2014,07,27,02,16,14.10
2014,07,27,02,17,14.10
2014,07,27,02,18,14.00
2014,07,27,02,19,14.00
2014,07,27,02,20,14.00
2014,07,27,02,21,14.00
2014,07,27,02,22,13.90
2014,07,27,02,23,13.90
2014,07,27,02,24,13.90
2014,07,27,02,25,13.90
2014,07,27,02,26,13.90
2014,07,27,02,27,13.90
2014,07,27,02,28,13.90
2014,07,27,02,29,13.90
2014,07,27,02,30,13.90
2014,07,27,02,31,13.90
2014,07,27,02,32,13.90
2014,07,27,02,33,13.90
2014,07,27,02,34,13.90
2014,07,27,02,35,13.90
2014,07,27,02,36,13.90
2014,07,27,02,37,13.90
2014,07,27,02,38,13.90
2014,07,27,02,39,13.90
2014,07,27,02,40,13.90
2014,07,27,02,41,13.90
2014,07,27,02,42,13.90
2014,07,27,02,43,13.90
2014,07,27,02,44,14.00
2014,07,27,02,45,14.00
2014,07,27,02,46,14.00
2014,07,27,02,47,14.00
2014,07,27,02,48,14.00
2014,07,27,02,49,14.10
2014,07,27,02,50,14.10
2014,07,27,02,51,14.10
2014,07,27,02,52,14.10
2014,07,27,02,53,14.00
2014,07,27,02,54,14.00
2014,07,27,02,55,14.00
2014,07,27,02,56,14.00
2014,07,27,02,57,14.00
2014,07,27,02,58,14.00
2014,07,27,02,59,14.00
2014,07,27,03,00,13.90
2014,07,27,03,01,13.90
2014,07,27,03,02,13.90
2014,07,27,03,03,13.90
2014,07,27,03,04,13.90
2014,07,27,03,05,13.90
2014,07,27,03,06,13.90
2014,07,27,03,07,13.90
2014,07,27,03,08,13.90
2014,07,27,03,09,13.90
2014,07,27,03,10,13.90
2014,07,27,03,11,13.90
2014,07,27,03,12,13.90
2014,07,27,03,13,13.90
2014,07,27,03,14,13.90
2014,07,27,03,15,13.90
2014,07,27,03,16,13.90
2014,07,27,03,17,13.90
2014,07,27,03,18,13.90
2014,07,27,03,19,13.90
2014,07,27,03,20,13.90
2014,07,27,03,21,13.90
2014,07,27,03,22,13.90
2014,07,27,03,23,13.90
2014,07,27,03,24,13.90
2014,07,27,03,25,13.90
2014,07,27,03,26,13.90
2014,07,27,03,27,13.90
2014,07,27,03,28,13.90
2014,07,27,03,29,13.90
2014,07,27,03,30,13.90
2014,07,27,03,31,13.90
2014,07,27,03,32,13.80
2014,07,27,03,33,13.80
2014,07,27,03,34,13.80
2014,07,27,03,35,13.80
2014,07,27,03,36,13.80
2014,07,27,03,37,13.80
2014,07,27,03,38,13.80
2014,07,27,03,39,13.70
2014,07,27,03,40,13.70
2014,07,27,03,41,13.70
2014,07,27,03,42,13.70
2014,07,27,03,43,13.70
2014,07,27,03,44,13.60
2014,07,27,03,45,13.60
2014,07,27,03,46,13.60
2014,07,27,03,47,13.60
2014,07,27,03,48,13.60
2014,07,27,03,49,13.50
2014,07,27,03,50,13.50
2014,07,27,03,51,13.50
2014,07,27,03,52,13.50
2014,07,27,03,53,13.50
2014,07,27,03,54,13.50
2014,07,27,03,55,13.50
2014,07,27,03,56,13.40
2014,07,27,03,57,13.40
2014,07,27,03,58,13.40
2014,07,27,03,59,13.40
2014,07,27,04,00,13.40
2014,07,27,04,01,13.40
2014,07,27,04,02,13.40
2014,07,27,04,03,13.40
2014,07,27,04,04,13.40
2014,07,27,04,05,13.40
2014,07,27,04,06,13.40
2014,07,27,04,07,13.40
2014,07,27,04,08,13.30
2014,07,27,04,09,13.40
2014,07,27,04,10,13.40
2014,07,27,04,11,13.30
2014,07,27,04,12,13.40
2014,07,27,04,13,13.30
2014,07,27,04,14,13.30
2014,07,27,04,15,13.30
2014,07,27,04,16,13.30
2014,07,27,04,17,13.30
2014,07,27,04,18,13.30
2014,07,27,04,19,13.20
2014,07,27,04,20,13.20
2014,07,27,04,21,13.20
2014,07,27,04,22,13.20
2014,07,27,04,23,13.20
2014,07,27,04,24,13.10
2014,07,27,04,25,13.10
2014,07,27,04,26,13.10
2014,07,27,04,27,13.10
2014,07,27,04,28,13.00
2014,07,27,04,29,13.00
2014,07,27,04,30,13.00
2014,07,27,04,31,13.00
2014,07,27,04,32,13.00
2014,07,27,04,33,13.00
2014,07,27,04,34,13.10
2014,07,27,04,35,13.10
2014,07,27,04,36,13.10
2014,07,27,04,37,13.10
2014,07,27,04,38,13.20
2014,07,27,04,39,13.20
2014,07,27,04,40,13.20
2014,07,27,04,41,13.20
2014,07,27,04,42,13.20
2014,07,27,04,43,13.20
2014,07,27,04,44,13.20
2014,07,27,04,45,13.20
2014,07,27,04,46,13.20
2014,07,27,04,47,13.20
2014,07,27,04,48,13.20
2014,07,27,04,49,13.20
2014,07,27,04,50,13.20
2014,07,27,04,51,13.20
2014,07,27,04,52,13.20
2014,07,27,04,53,13.20
2014,07,27,04,54,13.20
2014,07,27,04,55,13.30
2014,07,27,04,56,13.30
2014,07,27,04,57,13.30
2014,07,27,04,58,13.30
2014,07,27,04,59,13.30
2014,07,27,05,00,13.30
2014,07,27,05,01,13.30
2014,07,27,05,02,13.30
2014,07,27,05,03,13.30
2014,07,27,05,04,13.30
2014,07,27,05,05,13.30
2014,07,27,05,06,13.30
2014,07,27,05,07,13.30
2014,07,27,05,08,13.30
2014,07,27,05,09,13.30
2014,07,27,05,10,13.30
2014,07,27,05,11,13.30
2014,07,27,05,12,13.30
2014,07,27,05,13,13.30
2014,07,27,05,14,13.30
2014,07,27,05,15,13.30
2014,07,27,05,16,13.30
2014,07,27,05,17,13.30
2014,07,27,05,18,13.30
2014,07,27,05,19,13.40
2014,07,27,05,20,13.40
2014,07,27,05,21,13.40
2014,07,27,05,22,13.40
2014,07,27,05,23,13.40
2014,07,27,05,24,13.40
2014,07,27,05,25,13.40
2014,07,27,05,26,13.50
2014,07,27,05,27,13.50
2014,07,27,05,28,13.60
2014,07,27,05,29,13.60
2014,07,27,05,30,13.60
2014,07,27,05,31,13.60
2014,07,27,05,32,13.60
2014,07,27,05,33,13.70
2014,07,27,05,34,13.70
2014,07,27,05,35,13.70
2014,07,27,05,36,13.60
2014,07,27,05,37,13.60
2014,07,27,05,38,13.60
2014,07,27,05,39,13.60
2014,07,27,05,40,13.60
2014,07,27,05,41,13.60
2014,07,27,05,42,13.60
2014,07,27,05,43,13.60
2014,07,27,05,44,13.60
2014,07,27,05,45,13.60
2014,07,27,05,46,13.60
2014,07,27,05,47,13.60
2014,07,27,05,48,13.60
2014,07,27,05,49,13.60
2014,07,27,05,50,13.50
2014,07,27,05,51,13.50
2014,07,27,05,52,13.50
2014,07,27,05,53,13.40
2014,07,27,05,54,13.40
2014,07,27,05,55,13.50
2014,07,27,05,56,13.50
2014,07,27,05,57,13.60
2014,07,27,05,58,13.60
2014,07,27,05,59,13.60
2014,07,27,06,00,13.60
2014,07,27,06,01,13.60
2014,07,27,06,02,13.70
2014,07,27,06,03,13.70
2014,07,27,06,04,13.70
2014,07,27,06,05,13.80
2014,07,27,06,06,13.80
2014,07,27,06,07,13.80
2014,07,27,06,08,13.90
2014,07,27,06,09,13.90
2014,07,27,06,10,13.90
2014,07,27,06,11,13.90
2014,07,27,06,12,13.90
2014,07,27,06,13,13.90
2014,07,27,06,14,13.90
2014,07,27,06,15,14.00
2014,07,27,06,16,14.00
2014,07,27,06,17,14.00
2014,07,27,06,18,14.10
2014,07,27,06,19,14.10
2014,07,27,06,20,14.10
2014,07,27,06,21,14.20
2014,07,27,06,22,14.20
2014,07,27,06,23,14.20
2014,07,27,06,24,14.20
2014,07,27,06,25,14.20
2014,07,27,06,26,14.20
2014,07,27,06,27,14.20
2014,07,27,06,28,14.20
2014,07,27,06,29,14.20
2014,07,27,06,30,14.20
2014,07,27,06,31,14.30
2014,07,27,06,32,14.30
2014,07,27,06,33,14.20
2014,07,27,06,34,14.30
2014,07,27,06,35,14.30
2014,07,27,06,36,14.30
2014,07,27,06,37,14.30
2014,07,27,06,38,14.30
2014,07,27,06,39,14.40
2014,07,27,06,40,14.50
2014,07,27,06,41,14.50
2014,07,27,06,42,14.50
2014,07,27,06,43,14.60
2014,07,27,06,44,14.60
2014,07,27,06,45,14.70
2014,07,27,06,46,14.70
2014,07,27,06,47,14.80
2014,07,27,06,48,14.90
2014,07,27,06,49,14.90
2014,07,27,06,50,15.00
2014,07,27,06,51,15.10
2014,07,27,06,52,15.10
2014,07,27,06,53,15.20
2014,07,27,06,54,15.20
2014,07,27,06,55,15.30
2014,07,27,06,56,15.30
2014,07,27,06,57,15.30
2014,07,27,06,58,15.30
2014,07,27,06,59,15.40
2014,07,27,07,00,15.40
2014,07,27,07,01,15.40
2014,07,27,07,02,15.40
2014,07,27,07,03,15.40
2014,07,27,07,04,15.50
2014,07,27,07,05,15.50
2014,07,27,07,06,15.60
2014,07,27,07,07,15.60
2014,07,27,07,08,15.60
2014,07,27,07,09,15.70
2014,07,27,07,10,15.70
2014,07,27,07,11,15.70
2014,07,27,07,12,15.80
2014,07,27,07,13,15.80
2014,07,27,07,14,15.80
2014,07,27,07,15,15.80
2014,07,27,07,16,15.90
2014,07,27,07,17,15.90
2014,07,27,07,18,15.90
2014,07,27,07,19,16.00
2014,07,27,07,20,16.00
2014,07,27,07,21,16.00
2014,07,27,07,22,16.10
2014,07,27,07,23,16.10
2014,07,27,07,24,16.10
2014,07,27,07,25,16.10
2014,07,27,07,26,16.10
2014,07,27,07,27,16.10
2014,07,27,07,28,16.10
2014,07,27,07,29,16.10
2014,07,27,07,30,16.10
2014,07,27,07,31,16.10
2014,07,27,07,32,16.10
2014,07,27,07,33,16.20
2014,07,27,07,34,16.20
2014,07,27,07,35,16.20
2014,07,27,07,36,16.20
2014,07,27,07,37,16.20
2014,07,27,07,38,16.20
2014,07,27,07,39,16.30
2014,07,27,07,40,16.30
2014,07,27,07,41,16.30
2014,07,27,07,42,16.30
2014,07,27,07,43,16.30
2014,07,27,07,44,16.30
2014,07,27,07,45,16.40
2014,07,27,07,46,16.40
2014,07,27,07,47,16.40
2014,07,27,07,48,16.40
2014,07,27,07,49,16.40
2014,07,27,07,50,16.40
2014,07,27,07,51,16.50
2014,07,27,07,52,16.50
2014,07,27,07,53,16.50
2014,07,27,07,54,16.50
2014,07,27,07,55,16.60
2014,07,27,07,56,16.60
2014,07,27,07,57,16.60
2014,07,27,07,58,16.60
2014,07,27,07,59,16.60
2014,07,27,08,00,16.60
2014,07,27,08,01,16.60
2014,07,27,08,02,16.60
2014,07,27,08,03,16.70
2014,07,27,08,04,16.70
2014,07,27,08,05,16.70
2014,07,27,08,06,16.70
2014,07,27,08,07,16.70
2014,07,27,08,08,16.70
2014,07,27,08,09,16.80
2014,07,27,08,10,16.80
2014,07,27,08,11,16.80
2014,07,27,08,12,16.90
2014,07,27,08,13,16.90
2014,07,27,08,14,16.90
2014,07,27,08,15,16.90
2014,07,27,08,16,17.00
2014,07,27,08,17,17.00
2014,07,27,08,18,17.00
2014,07,27,08,19,17.00
2014,07,27,08,20,17.10
2014,07,27,08,21,17.10
2014,07,27,08,22,17.10
2014,07,27,08,23,17.10
2014,07,27,08,24,17.20
2014,07,27,08,25,17.20
2014,07,27,08,26,17.20
2014,07,27,08,27,17.20
2014,07,27,08,28,17.20
2014,07,27,08,29,17.20
2014,07,27,08,30,17.20
2014,07,27,08,31,17.30
2014,07,27,08,32,17.30
2014,07,27,08,33,17.30
2014,07,27,08,34,17.30
2014,07,27,08,35,17.30
2014,07,27,08,36,17.40
2014,07,27,08,37,17.40
2014,07,27,08,38,17.40
2014,07,27,08,39,17.40
2014,07,27,08,40,17.50
2014,07,27,08,41,17.60
2014,07,27,08,42,17.60
2014,07,27,08,43,17.60
2014,07,27,08,44,17.60
2014,07,27,08,45,17.70
2014,07,27,08,46,17.70
2014,07,27,08,47,17.70
2014,07,27,08,48,17.70
2014,07,27,08,49,17.70
2014,07,27,08,50,17.80
2014,07,27,08,51,17.80
2014,07,27,08,52,17.80
2014,07,27,08,53,17.80
2014,07,27,08,54,17.80
2014,07,27,08,55,17.80
2014,07,27,08,56,17.90
2014,07,27,08,57,17.90
2014,07,27,08,58,17.90
2014,07,27,08,59,18.00
2014,07,27,09,00,18.00
2014,07,27,09,01,18.00
2014,07,27,09,02,18.10
2014,07,27,09,03,18.10
2014,07,27,09,04,18.10
2014,07,27,09,05,18.20
2014,07,27,09,06,18.20
2014,07,27,09,07,18.20
2014,07,27,09,08,18.20
2014,07,27,09,09,18.20
2014,07,27,09,10,18.20
2014,07,27,09,11,18.20
2014,07,27,09,12,18.20
2014,07,27,09,13,18.20
2014,07,27,09,14,18.20
2014,07,27,09,15,18.30
2014,07,27,09,16,18.30
2014,07,27,09,17,18.30
2014,07,27,09,18,18.30
2014,07,27,09,19,18.30
2014,07,27,09,20,18.30
2014,07,27,09,21,18.30
2014,07,27,09,22,18.40
2014,07,27,09,23,18.40
2014,07,27,09,24,18.40
2014,07,27,09,25,18.40
2014,07,27,09,26,18.50
2014,07,27,09,27,18.50
2014,07,27,09,28,18.60
2014,07,27,09,29,18.60
2014,07,27,09,30,18.60
2014,07,27,09,31,18.60
2014,07,27,09,32,18.70
2014,07,27,09,33,18.70
2014,07,27,09,34,18.80
2014,07,27,09,35,18.80
2014,07,27,09,36,18.90
2014,07,27,09,37,19.00
2014,07,27,09,38,19.00
2014,07,27,09,39,19.10
2014,07,27,09,40,19.10
2014,07,27,09,41,19.10
2014,07,27,09,42,19.20
2014,07,27,09,43,19.20
2014,07,27,09,44,19.30
2014,07,27,09,45,19.40
2014,07,27,09,46,19.40
2014,07,27,09,47,19.50
2014,07,27,09,48,19.60
2014,07,27,09,49,19.60
2014,07,27,09,50,19.70
2014,07,27,09,51,19.70
2014,07,27,09,52,19.80
2014,07,27,09,53,19.80
2014,07,27,09,54,19.90
2014,07,27,09,55,19.90
2014,07,27,09,56,20.00
2014,07,27,09,57,20.10
2014,07,27,09,58,20.20
2014,07,27,09,59,20.30
2014,07,27,10,00,20.40
2014,07,27,10,01,20.50
2014,07,27,10,02,20.50
2014,07,27,10,03,20.60
2014,07,27,10,04,20.70
2014,07,27,10,05,20.80
2014,07,27,10,06,20.80
2014,07,27,10,07,20.80
2014,07,27,10,08,20.80
2014,07,27,10,09,20.90
2014,07,27,10,10,20.90
2014,07,27,10,11,20.90
2014,07,27,10,12,21.00
2014,07,27,10,13,21.00
2014,07,27,10,14,21.10
2014,07,27,10,15,21.10
2014,07,27,10,16,21.20
2014,07,27,10,17,21.30
2014,07,27,10,18,21.30
2014,07,27,10,19,21.40
2014,07,27,10,20,21.50
2014,07,27,10,21,21.60
2014,07,27,10,22,21.70
2014,07,27,10,23,21.80
2014,07,27,10,24,21.80
2014,07,27,10,25,21.80
2014,07,27,10,26,21.90
2014,07,27,10,27,22.00
2014,07,27,10,28,22.00
2014,07,27,10,29,22.10
2014,07,27,10,30,22.10
2014,07,27,10,31,22.00
2014,07,27,10,32,22.10
2014,07,27,10,33,22.10
2014,07,27,10,34,22.10
2014,07,27,10,35,22.10
2014,07,27,10,36,22.10
2014,07,27,10,37,22.10
2014,07,27,10,38,22.20
2014,07,27,10,39,22.20
2014,07,27,10,40,22.20
2014,07,27,10,41,22.10
2014,07,27,10,42,22.10
2014,07,27,10,43,22.10
2014,07,27,10,44,22.10
2014,07,27,10,45,22.10
2014,07,27,10,46,22.10
2014,07,27,10,47,22.10
2014,07,27,10,48,22.10
2014,07,27,10,49,22.20
2014,07,27,10,50,22.20
2014,07,27,10,51,22.10
2014,07,27,10,52,22.10
2014,07,27,10,53,22.10
2014,07,27,10,54,22.00
2014,07,27,10,55,22.00
2014,07,27,10,56,21.90
2014,07,27,10,57,21.90
2014,07,27,10,58,22.00
2014,07,27,10,59,21.90
2014,07,27,11,00,21.90
2014,07,27,11,01,21.90
2014,07,27,11,02,21.90
2014,07,27,11,03,22.00
2014,07,27,11,04,22.00
2014,07,27,11,05,22.10
2014,07,27,11,06,22.10
2014,07,27,11,07,22.10
2014,07,27,11,08,22.20
2014,07,27,11,09,22.20
2014,07,27,11,10,22.20
2014,07,27,11,11,22.30
2014,07,27,11,12,22.30
2014,07,27,11,13,22.40
2014,07,27,11,14,22.50
2014,07,27,11,15,22.60
2014,07,27,11,16,22.60
2014,07,27,11,17,22.70
2014,07,27,11,18,22.70
2014,07,27,11,19,22.70
2014,07,27,11,20,22.80
2014,07,27,11,21,22.80
2014,07,27,11,22,22.80
2014,07,27,11,23,22.80
2014,07,27,11,24,22.90
2014,07,27,11,25,22.90
2014,07,27,11,26,23.00
2014,07,27,11,27,23.00
2014,07,27,11,28,23.10
2014,07,27,11,29,23.10
2014,07,27,11,30,23.10
2014,07,27,11,31,23.10
2014,07,27,11,32,23.10
2014,07,27,11,33,23.10
2014,07,27,11,34,23.20
2014,07,27,11,35,23.20
2014,07,27,11,36,23.20
2014,07,27,11,37,23.20
2014,07,27,11,38,23.20
2014,07,27,11,39,23.20
2014,07,27,11,40,23.30
2014,07,27,11,41,23.30
2014,07,27,11,42,23.30
2014,07,27,11,43,23.30
2014,07,27,11,44,23.40
2014,07,27,11,45,23.40
2014,07,27,11,46,23.40
2014,07,27,11,47,23.40
2014,07,27,11,48,23.40
2014,07,27,11,49,23.40
2014,07,27,11,50,23.40
2014,07,27,11,51,23.40
2014,07,27,11,52,23.40
2014,07,27,11,53,23.50
2014,07,27,11,54,23.60
2014,07,27,11,55,23.60
2014,07,27,11,56,23.60
2014,07,27,11,57,23.60
2014,07,27,11,58,23.60
2014,07,27,11,59,23.50
2014,07,27,12,00,23.50
2014,07,27,12,01,23.50
2014,07,27,12,02,23.50
2014,07,27,12,03,23.40
2014,07,27,12,04,23.40
2014,07,27,12,05,23.30
2014,07,27,12,06,23.20
2014,07,27,12,07,23.10
2014,07,27,12,08,23.10
2014,07,27,12,09,23.10
2014,07,27,12,10,23.10
2014,07,27,12,11,23.10
2014,07,27,12,12,23.20
2014,07,27,12,13,23.20
2014,07,27,12,14,23.20
2014,07,27,12,15,23.20
2014,07,27,12,16,23.20
2014,07,27,12,17,23.20
2014,07,27,12,18,23.20
2014,07,27,12,19,23.10
2014,07,27,12,20,23.10
2014,07,27,12,21,23.10
2014,07,27,12,22,23.10
2014,07,27,12,23,23.10
2014,07,27,12,24,23.20
2014,07,27,12,25,23.20
2014,07,27,12,26,23.20
2014,07,27,12,27,23.20
2014,07,27,12,28,23.20
2014,07,27,12,29,23.20
2014,07,27,12,30,23.20
2014,07,27,12,31,23.20
2014,07,27,12,32,23.20
2014,07,27,12,33,23.20
2014,07,27,12,34,23.20
2014,07,27,12,35,23.20
2014,07,27,12,36,23.20
2014,07,27,12,37,23.30
2014,07,27,12,38,23.40
2014,07,27,12,39,23.40
2014,07,27,12,40,23.50
2014,07,27,12,41,23.50
2014,07,27,12,42,23.50
2014,07,27,12,43,23.50
2014,07,27,12,44,23.60
2014,07,27,12,45,23.70
2014,07,27,12,46,23.80
2014,07,27,12,47,23.90
2014,07,27,12,48,23.90
2014,07,27,12,49,23.90
2014,07,27,12,50,23.90
2014,07,27,12,51,23.90
2014,07,27,12,52,23.90
2014,07,27,12,53,23.90
2014,07,27,12,54,24.00
2014,07,27,12,55,24.10
2014,07,27,12,56,24.20
2014,07,27,12,57,24.20
2014,07,27,12,58,24.20
2014,07,27,12,59,24.20
2014,07,27,13,00,24.20
2014,07,27,13,01,24.20
2014,07,27,13,02,24.20
2014,07,27,13,03,24.30
2014,07,27,13,04,24.40
2014,07,27,13,05,24.40
2014,07,27,13,06,24.40
2014,07,27,13,07,24.40
2014,07,27,13,08,24.40
2014,07,27,13,09,24.40
2014,07,27,13,10,24.50
2014,07,27,13,11,24.50
2014,07,27,13,12,24.50
2014,07,27,13,13,24.50
2014,07,27,13,14,24.50
2014,07,27,13,15,24.50
2014,07,27,13,16,24.60
2014,07,27,13,17,24.70
2014,07,27,13,18,24.70
2014,07,27,13,19,24.80
2014,07,27,13,20,24.90
2014,07,27,13,21,24.90
2014,07,27,13,22,25.00
2014,07,27,13,23,25.10
2014,07,27,13,24,25.10
2014,07,27,13,25,25.10
2014,07,27,13,26,25.10
2014,07,27,13,27,25.10
2014,07,27,13,28,25.10
2014,07,27,13,29,25.10
2014,07,27,13,30,25.10
2014,07,27,13,31,25.10
2014,07,27,13,32,25.20
2014,07,27,13,33,25.30
2014,07,27,13,34,25.40
2014,07,27,13,35,25.40
2014,07,27,13,36,25.40
2014,07,27,13,37,25.40
2014,07,27,13,38,25.30
2014,07,27,13,39,25.30
2014,07,27,13,40,25.20
2014,07,27,13,41,25.20
2014,07,27,13,42,25.20
2014,07,27,13,43,25.20
2014,07,27,13,44,25.20
2014,07,27,13,45,25.30
2014,07,27,13,46,25.30
2014,07,27,13,47,25.40
2014,07,27,13,48,25.40
2014,07,27,13,49,25.40
2014,07,27,13,50,25.40
2014,07,27,13,51,25.30
2014,07,27,13,52,25.40
2014,07,27,13,53,25.50
2014,07,27,13,54,25.50
2014,07,27,13,55,25.60
2014,07,27,13,56,25.70
2014,07,27,13,57,25.80
2014,07,27,13,58,25.80
2014,07,27,13,59,25.70
2014,07,27,14,00,25.80
2014,07,27,14,01,25.80
2014,07,27,14,02,25.80
2014,07,27,14,03,25.80
2014,07,27,14,04,25.70
2014,07,27,14,05,25.80
2014,07,27,14,06,25.90
2014,07,27,14,07,26.00
2014,07,27,14,08,26.10
2014,07,27,14,09,26.00
2014,07,27,14,10,26.00
2014,07,27,14,11,25.90
2014,07,27,14,12,25.70
2014,07,27,14,13,25.60
2014,07,27,14,14,25.50
2014,07,27,14,15,25.30
2014,07,27,14,16,25.20
2014,07,27,14,17,25.10
2014,07,27,14,18,25.00
2014,07,27,14,19,25.00
2014,07,27,14,20,24.90
2014,07,27,14,21,24.90
2014,07,27,14,22,24.90
2014,07,27,14,23,24.90
2014,07,27,14,24,24.90
2014,07,27,14,25,25.00
2014,07,27,14,26,25.00
2014,07,27,14,27,25.10
2014,07,27,14,28,25.20
2014,07,27,14,29,25.30
2014,07,27,14,30,25.30
2014,07,27,14,31,25.30
2014,07,27,14,32,25.30
2014,07,27,14,33,25.30
2014,07,27,14,34,25.40
2014,07,27,14,35,25.40
2014,07,27,14,36,25.50
2014,07,27,14,37,25.50
2014,07,27,14,38,25.50
2014,07,27,14,39,25.60
2014,07,27,14,40,25.70
2014,07,27,14,41,25.70
2014,07,27,14,42,25.70
2014,07,27,14,43,25.70
2014,07,27,14,44,25.80
2014,07,27,14,45,25.80
2014,07,27,14,46,25.80
2014,07,27,14,47,25.90
2014,07,27,14,48,25.90
2014,07,27,14,49,26.00
2014,07,27,14,50,26.00
2014,07,27,14,51,26.00
2014,07,27,14,52,26.10
2014,07,27,14,53,26.00
2014,07,27,14,54,25.90
2014,07,27,14,55,26.00
2014,07,27,14,56,26.00
2014,07,27,14,57,25.90
2014,07,27,14,58,25.90
2014,07,27,14,59,25.80
2014,07,27,15,00,25.80
2014,07,27,15,01,25.80
2014,07,27,15,02,25.90
2014,07,27,15,03,26.00
2014,07,27,15,04,26.10
2014,07,27,15,05,26.10
2014,07,27,15,06,26.10
2014,07,27,15,07,26.10
2014,07,27,15,08,26.10
2014,07,27,15,09,26.10
2014,07,27,15,10,26.00
2014,07,27,15,11,25.90
2014,07,27,15,12,25.90
2014,07,27,15,13,25.90
2014,07,27,15,14,26.00
2014,07,27,15,15,26.10
2014,07,27,15,16,26.20
2014,07,27,15,17,26.20
2014,07,27,15,18,26.20
2014,07,27,15,19,26.20
2014,07,27,15,20,26.30
2014,07,27,15,21,26.30
2014,07,27,15,22,26.30
2014,07,27,15,23,26.30
2014,07,27,15,24,26.20
2014,07,27,15,25,26.10
2014,07,27,15,26,26.10
2014,07,27,15,27,26.10
2014,07,27,15,28,26.10
2014,07,27,15,29,26.10
2014,07,27,15,30,26.10
2014,07,27,15,31,26.10
2014,07,27,15,32,26.10
2014,07,27,15,33,26.20
2014,07,27,15,34,26.20
2014,07,27,15,35,26.20
2014,07,27,15,36,26.20
2014,07,27,15,37,26.20
2014,07,27,15,38,26.30
2014,07,27,15,39,26.30
2014,07,27,15,40,26.30
2014,07,27,15,41,26.40
2014,07,27,15,42,26.60
2014,07,27,15,43,26.70
2014,07,27,15,44,26.80
2014,07,27,15,45,26.90
2014,07,27,15,46,26.90
2014,07,27,15,47,27.00
2014,07,27,15,48,27.10
2014,07,27,15,49,27.20
2014,07,27,15,50,27.20
2014,07,27,15,51,27.30
2014,07,27,15,52,27.30
2014,07,27,15,53,27.30
2014,07,27,15,54,27.30
2014,07,27,15,55,27.30
2014,07,27,15,56,27.40
2014,07,27,15,57,27.40
2014,07,27,15,58,27.30
2014,07,27,15,59,27.30
2014,07,27,16,00,27.30
2014,07,27,16,01,27.30
2014,07,27,16,02,27.30
2014,07,27,16,03,27.30
2014,07,27,16,04,27.30
2014,07,27,16,05,27.20
2014,07,27,16,06,27.20
2014,07,27,16,07,27.10
2014,07,27,16,08,27.00
2014,07,27,16,09,26.90
2014,07,27,16,10,26.90
2014,07,27,16,11,26.80
2014,07,27,16,12,26.80
2014,07,27,16,13,26.80
2014,07,27,16,14,26.80
2014,07,27,16,15,26.90
2014,07,27,16,16,26.90
2014,07,27,16,17,26.90
2014,07,27,16,18,26.90
2014,07,27,16,19,27.00
2014,07,27,16,20,27.10
2014,07,27,16,21,27.10
2014,07,27,16,22,27.10
2014,07,27,16,23,27.10
2014,07,27,16,24,27.10
2014,07,27,16,25,27.10
2014,07,27,16,26,27.10
2014,07,27,16,27,27.00
2014,07,27,16,28,27.00
2014,07,27,16,29,26.90
2014,07,27,16,30,26.90
2014,07,27,16,31,26.80
2014,07,27,16,32,26.90
2014,07,27,16,33,27.00
2014,07,27,16,34,27.10
2014,07,27,16,35,27.30
2014,07,27,16,36,27.40
2014,07,27,16,37,27.40
2014,07,27,16,38,27.50
2014,07,27,16,39,27.50
2014,07,27,16,40,27.60
2014,07,27,16,41,27.60
2014,07,27,16,42,27.60
2014,07,27,16,43,27.60
2014,07,27,16,44,27.50
2014,07,27,16,45,27.50
2014,07,27,16,46,27.40
2014,07,27,16,47,27.40
2014,07,27,16,48,27.40
2014,07,27,16,49,27.30
2014,07,27,16,50,27.20
2014,07,27,16,51,27.10
2014,07,27,16,52,27.00
2014,07,27,16,53,26.90
2014,07,27,16,54,26.90
2014,07,27,16,55,26.90
2014,07,27,16,56,26.90
2014,07,27,16,57,26.80
2014,07,27,16,58,26.80
2014,07,27,16,59,26.80
2014,07,27,17,00,26.80
2014,07,27,17,01,26.70
2014,07,27,17,02,26.70
2014,07,27,17,03,26.70
2014,07,27,17,04,26.70
2014,07,27,17,05,26.70
2014,07,27,17,06,26.70
2014,07,27,17,07,26.70
2014,07,27,17,08,26.70
2014,07,27,17,09,26.60
2014,07,27,17,10,26.60
2014,07,27,17,11,26.70
2014,07,27,17,12,26.70
2014,07,27,17,13,26.70
2014,07,27,17,14,26.80
2014,07,27,17,15,26.80
2014,07,27,17,16,26.80
2014,07,27,17,17,26.80
2014,07,27,17,18,26.80
2014,07,27,17,19,26.90